STARLINK-35482

Last updated on Sun Dec 07 2025 00:02:05 GMT+0000 (Coordinated Universal Time)

1 66346U 25253AD 25340.58335648 .00124202 00000+0 29413-2 0 9999 2 66346 43.0002 20.7482 0001296 274.8031 207.4635 15.40607879 6035
UTC large
Height (km)
Speed (km/s)
/
Latitude / Longitude
Inclination (degrees)
Orbital Period (minutes)
Azimuth
Elevation
Range (km)
Doppler Factor

Next 0 passes for location: London (51.5072 / 0.1276)

Sorry there are no passes over London.